This is the latest recevied weather packets stored in our database for station/object DB0HOL-4. If no packets are shown the sender has not sent any weather packets the latest 10 day(s).
| Time | Temp. | Humidity | Pressure | Rain* | Wind** | Luminosity | Snow |
|---|---|---|---|---|---|---|---|
| 1777685197 | 13.33° C | 61% | 1020.9 hPa | 0 mm | - | 0 W/m² | - |
| 1777683397 | 13.89° C | 59% | 1020.9 hPa | 0 mm | - | 0 W/m² | - |
| 1777681598 | 13.89° C | 59% | 1021.3 hPa | 0 mm | - | 0 W/m² | - |
| 1777679797 | 14.44° C | 57% | 1021.3 hPa | 0 mm | - | 0 W/m² | - |
| 1777677997 | 13.89° C | 57% | 1021.3 hPa | 0 mm | - | 0 W/m² | - |
| 1777672597 | 15° C | 54% | 1021.6 hPa | 0 mm | - | 0 W/m² | - |
| 1777670797 | 15.56° C | 54% | 1022 hPa | 0 mm | - | 0 W/m² | - |
| 1777668997 | 15.56° C | 54% | 1022 hPa | 0 mm | - | 0 W/m² | - |
| 1777667197 | 16.11° C | 53% | 1022 hPa | 0 mm | - | 0 W/m² | - |
| 1777665397 | 16.11° C | 53% | 1022 hPa | 0 mm | - | 0 W/m² | - |
| 1777663597 | 16.67° C | 50% | 1022 hPa | 0 mm | - | 8 W/m² | - |
| 1777661797 | 17.22° C | 48% | 1022 hPa | 0 mm | - | 169 W/m² | - |
| 1777659997 | 17.78° C | 47% | 1022 hPa | 0 mm | - | 503 W/m² | - |
| 1777658197 | 18.33° C | 48% | 1022 hPa | 0 mm | - | 737 W/m² | - |
| 1777656397 | 18.89° C | 47% | 1022.3 hPa | 0 mm | - | 179 W/m² | - |
| 1777654597 | 18.89° C | 44% | 1022.6 hPa | 0 mm | - | 252 W/m² | - |
| 1777652797 | 19.44° C | 46% | 1023 hPa | 0 mm | - | 338 W/m² | - |
| 1777650997 | 19.44° C | 47% | 1023.3 hPa | 0 mm | - | 397 W/m² | - |
| 1777649197 | 18.89° C | 45% | 1023.7 hPa | 0 mm | - | 474 W/m² | - |
| 1777647397 | 18.89° C | 48% | 1024 hPa | 0 mm | - | 502 W/m² | - |
| 1777645598 | 18.33° C | 46% | 1024.3 hPa | 0 mm | - | 159 W/m² | - |
| 1777643798 | 18.33° C | 48% | 1024.3 hPa | 0 mm | - | 584 W/m² | - |
| 1777641998 | 18.33° C | 47% | 1025 hPa | 0 mm | - | 572 W/m² | - |
| 1777640197 | 17.22° C | 50% | 1025.3 hPa | 0 mm | - | 622 W/m² | - |
| 1777638398 | 17.22° C | 54% | 1026 hPa | 0 mm | - | 622 W/m² | - |
* Rain latest hour (hover to see other rain measurements)
** Current wind speed in m/s (hover to see current wind gust speed)